Printer-friendly version

IAU Minor Planet Center

Minor Planet Center

MPEC 2000-W32: 2000 WH10

The following Minor Planet Electronic Circular may be linked-to from your own Web pages, but must not otherwise be redistributed electronically.


Read MPEC 2000-W31 Read MPEC 2000-W33


M.P.E.C. 2000-W32                                Issued 2000 Nov. 24, 21:25 UT

     The Minor Planet Electronic Circulars contain information on unusual
         minor planets and routine data on comets.  They are published
   on behalf of Commission 20 of the International Astronomical Union by the
          Minor Planet Center, Smithsonian Astrophysical Observatory,
                          Cambridge, MA 02138, U.S.A.

             Prepared using the Tamkin Foundation Computer Network

                              MPC@CFA.HARVARD.EDU
          URL http://cfa-www.harvard.edu/iau/mpc.html  ISSN 1523-6714

                                   2000 WH10

Observations:
     K00W10H* C2000 11 19.20395 01 15 34.05 +24 56 22.3          18.8        704
     K00W10H  C2000 11 19.21857 01 15 20.86 +24 59 29.5          18.3        704
     K00W10H  C2000 11 19.23294 01 15 07.94 +25 02 34.4          18.5        704
     K00W10H  C2000 11 19.24731 01 14 54.86 +25 05 37.9          18.3        704
     K00W10H  C2000 11 20.14954 01 00 40.85 +28 31 09.4          18.4        704
     K00W10H  C2000 11 20.16432 01 00 24.66 +28 34 42.7          18.2        704
     K00W10H  C2000 11 20.17963 01 00 07.77 +28 38 24.0          17.8        704
     K00W10H  C2000 11 20.19492 00 59 50.94 +28 42 03.7          18.1        704
     K00W10H  C2000 11 21.92137 00 22 42.65 +36 13 02.8                      587
     K00W10H  C2000 11 21.92303 00 22 40.07 +36 13 30.4                      587
     K00W10H  C2000 11 22.75172 23 58 59.04 +40 06 08.8          17.0 R      046
     K00W10H  C2000 11 22.75226 23 58 58.18 +40 06 17.8          17.1 R      046
     K00W10H  C2000 11 22.75279 23 58 57.02 +40 06 25.1                      046
     K00W10H  C2000 11 22.75330 23 58 56.13 +40 06 35.3                      046
     K00W10H  C2000 11 22.75422 23 58 54.55 +40 06 53.3                      046
     K00W10H  C2000 11 22.75457 23 58 53.60 +40 06 59.2                      046
     K00W10H  C2000 11 22.75493 23 58 52.90 +40 07 03.7                      046
     K00W10H  C2000 11 22.75568 23 58 51.50 +40 07 17.1                      046
     K00W10H  C2000 11 22.75650 23 58 49.86 +40 07 29.8                      046
     K00W10H  C2000 11 22.75685 23 58 49.33 +40 07 37.7          16.8 R      046
     K00W10H  C2000 11 23.13251 23 46 23.18 +41 53 23.1          19.1 R      853
     K00W10H  C2000 11 23.13517 23 46 17.56 +41 54 06.8          18.5 R      853
     K00W10H  C2000 11 23.13611 23 46 15.48 +41 54 22.5          18.6 R      853

Observer details:
046 Klet.  Observer M. Tichy.  0.57-m f/5.2 reflector + CCD.
587 Sormano.  Observer F. Manca.  0.5-m reflector + CCD.
704 Lincoln Laboratory ETS, New Mexico.  Observers M. Blythe, F. Shelly,
    M. Bezpalko, M. Elowitz, R. Huber, L. Manguso.  Measurers J. Stuart,
    R. Sayer, J. B. Evans, H. Viggh.  1.0-m f/2.15 reflector + CCD.
853 Biosphere 2 Observatory.  Observer G. J. Garradd.  0.6-m f/8.1 reflector
    + CCD.

Orbital elements:
2000 WH10
Epoch 2000 Nov. 12.0 TT = JDT 2451860.5                 Williams
M 348.00690              (2000.0)            P               Q
n   0.24408673     Peri.   63.25835     -0.38199702     -0.90703701
a   2.5357510      Node    50.34689     +0.74498451     -0.41562350
e   0.6633897      Incl.   13.29795     +0.54687874     -0.06738671
P   4.04           H   22.5           G   0.15
From 23 observations 2000 Nov. 19-23.

Ephemeris:
2000 WH10                a,e,i = 2.54, 0.66, 13                  q = 0.8536
Date    TT    R. A. (2000) Decl.     Delta      r     Elong.  Phase     V
2000 11 22    00 20.75   +36 35.3    0.063    1.031   131.5    45.8    18.3
2000 11 23    23 50.92   +41 15.9    0.060    1.023   124.7    52.5    18.4
2000 11 24    23 13.53   +45 44.3    0.058    1.015   117.3    59.8    18.5
2000 11 25    22 28.05   +49 29.3    0.057    1.008   109.5    67.5    18.7
2000 11 26    21 36.10   +51 59.1    0.057    1.000   101.6    75.1    18.9
2000 11 27    20 42.10   +52 55.2    0.059    0.993    94.1    82.5    19.2
2000 11 28    19 51.56   +52 23.7    0.062    0.986    87.2    89.2    19.6
2000 11 29    19 08.22   +50 48.9    0.066    0.978    81.1    95.1    19.9
2000 11 30    18 32.99   +48 38.8    0.070    0.971    75.9   100.1    20.3
2000 12 01    18 05.01   +46 15.1    0.075    0.965    71.4   104.3    20.7
2000 12 02    17 42.84   +43 51.3    0.081    0.958    67.7   107.8    21.0
2000 12 03    17 25.14   +41 34.4    0.087    0.951    64.6   110.6    21.3
2000 12 04    17 10.84   +39 27.4    0.094    0.945    62.1   112.9    21.6
2000 12 05    16 59.14   +37 31.1    0.101    0.939    60.0   114.7    21.8
2000 12 06    16 49.43   +35 45.2    0.108    0.933    58.3   116.1    22.1
2000 12 07    16 41.29   +34 08.7    0.115    0.927    56.9   117.2    22.3

Gareth V. Williams           (C) Copyright 2000 MPC           M.P.E.C. 2000-W32

Read MPEC 2000-W31 Read MPEC 2000-W33


Our Web policy. Index to the CBAT/MPC/ICQ pages.


Valid HTML 4.01!